Hourly Weather Ruinas Chichén-Itzá

Today, 18 April, Sunday

Time Temperature Precipitation Wind Pressure Humidity
00:00 +14°C° 0 mm 1 mps 675 mmHg 54%
01:00 +14°C° 0 mm 1 mps 674 mmHg 50%
02:00 +14°C° 0 mm 1 mps 674 mmHg 45%
03:00 +14°C° 0 mm 1 mps 674 mmHg 43%
04:00 +13°C° 0 mm 1 mps 674 mmHg 40%
05:00 +13°C° 0 mm 1 mps 674 mmHg 37%
06:00 +16°C° 0 mm 1 mps 675 mmHg 31%
07:00 +21°C° 0 mm 1 mps 676 mmHg 26%
08:00 +22°C° 0 mm 0 mps 677 mmHg 20%
09:00 +26°C° 0 mm 1 mps 677 mmHg 17%
10:00 +29°C° 0 mm 2 mps 677 mmHg 15%
11:00 +31°C° 0 mm 2 mps 677 mmHg 12%
12:00 +31°C° 0 mm 3 mps 676 mmHg 14%
13:00 +31°C° 0 mm 3 mps 676 mmHg 15%
14:00 +32°C° 0 mm 4 mps 675 mmHg 17%
15:00 +29°C° 0 mm 3 mps 675 mmHg 22%
16:00 +27°C° 0 mm 3 mps 675 mmHg 26%
17:00 +25°C° 0 mm 3 mps 675 mmHg 31%
18:00 +21°C° 0 mm 2 mps 675 mmHg 42%
19:00 +19°C° 0 mm 1 mps 675 mmHg 54%
20:00 +15°C° 0 mm 1 mps 675 mmHg 65%
21:00 +15°C° 0 mm 1 mps 675 mmHg 61%
22:00 +15°C° 0 mm 1 mps 675 mmHg 57%
23:00 +15°C° 0 mm 1 mps 675 mmHg 54%

Tomorrow, 19 April, Monday

Time Temperature Precipitation Wind Pressure Humidity
00:00 +14°C° 0 mm 1 mps 675 mmHg 51%
01:00 +14°C° 0 mm 1 mps 675 mmHg 48%
02:00 +14°C° 0 mm 1 mps 674 mmHg 46%
03:00 +13°C° 0 mm 1 mps 674 mmHg 44%
04:00 +13°C° 0 mm 1 mps 674 mmHg 42%
05:00 +13°C° 0 mm 1 mps 674 mmHg 41%
06:00 +16°C° 0 mm 1 mps 675 mmHg 34%
07:00 +20°C° 0 mm 1 mps 676 mmHg 28%
08:00 +21°C° 0 mm 0 mps 676 mmHg 22%
09:00 +25°C° 0 mm 1 mps 677 mmHg 19%
10:00 +28°C° 0 mm 2 mps 677 mmHg 16%
11:00 +30°C° 0 mm 2 mps 677 mmHg 13%
12:00 +30°C° 0 mm 3 mps 677 mmHg 15%
13:00 +30°C° 0 mm 3 mps 676 mmHg 18%
14:00 +30°C° 0 mm 4 mps 676 mmHg 20%
15:00 +28°C° 0 mm 3 mps 676 mmHg 25%
16:00 +26°C° 0 mm 3 mps 676 mmHg 30%
17:00 +25°C° 0 mm 3 mps 675 mmHg 35%
18:00 +21°C° 0 mm 2 mps 675 mmHg 48%
19:00 +19°C° 0 mm 1 mps 675 mmHg 61%
20:00 +15°C° 0 mm 1 mps 675 mmHg 74%
21:00 +15°C° 0 mm 1 mps 675 mmHg 72%
22:00 +15°C° 0 mm 1 mps 676 mmHg 71%
23:00 +15°C° 0 mm 1 mps 676 mmHg 69%

Day after tomorrow, 20 April, Tuesday

Time Temperature Precipitation Wind Pressure Humidity
00:00 +15°C° 0 mm 1 mps 675 mmHg 67%
01:00 +15°C° 0 mm 1 mps 675 mmHg 65%
02:00 +14°C° 0 mm 1 mps 674 mmHg 63%
03:00 +14°C° 0 mm 1 mps 674 mmHg 60%
04:00 +14°C° 0 mm 1 mps 674 mmHg 57%
05:00 +14°C° 0 mm 1 mps 674 mmHg 55%
06:00 +18°C° 0 mm 1 mps 675 mmHg 46%
07:00 +21°C° 0 mm 1 mps 676 mmHg 36%
08:00 +24°C° 0 mm 1 mps 677 mmHg 27%
09:00 +27°C° 0 mm 1 mps 677 mmHg 23%
10:00 +29°C° 0 mm 2 mps 677 mmHg 19%
11:00 +31°C° 0 mm 2 mps 678 mmHg 15%
12:00 +31°C° 0 mm 3 mps 677 mmHg 17%
13:00 +31°C° 0 mm 3 mps 677 mmHg 18%
14:00 +32°C° 0 mm 4 mps 676 mmHg 19%
15:00 +29°C° 0 mm 3 mps 676 mmHg 24%
16:00 +28°C° 0 mm 3 mps 676 mmHg 29%
17:00 +26°C° 0 mm 3 mps 676 mmHg 34%
18:00 +23°C° 0 mm 2 mps 676 mmHg 46%
19:00 +20°C° 0 mm 1 mps 676 mmHg 57%
20:00 +16°C° 0 mm 1 mps 676 mmHg 69%
21:00 +16°C° 0 mm 1 mps 676 mmHg 69%
22:00 +15°C° 0 mm 1 mps 676 mmHg 69%
23:00 +15°C° 0 mm 1 mps 676 mmHg 69%

21 April, Wednesday

Time Temperature Precipitation Wind Pressure Humidity
00:00 +15°C° 0 mm 1 mps 676 mmHg 67%
01:00 +14°C° 0 mm 1 mps 675 mmHg 64%
02:00 +14°C° 0 mm 1 mps 675 mmHg 62%
03:00 +14°C° 0 mm 1 mps 675 mmHg 59%
04:00 +14°C° 0 mm 1 mps 675 mmHg 56%
05:00 +14°C° 0 mm 1 mps 675 mmHg 53%
06:00 +18°C° 0 mm 1 mps 676 mmHg 44%
07:00 +21°C° 0 mm 1 mps 677 mmHg 36%
08:00 +25°C° 0 mm 1 mps 678 mmHg 27%
09:00 +27°C° 0 mm 1 mps 678 mmHg 22%
10:00 +30°C° 0 mm 2 mps 678 mmHg 18%
11:00 +32°C° 0 mm 2 mps 678 mmHg 13%
12:00 +33°C° 0 mm 3 mps 678 mmHg 15%
13:00 +33°C° 0 mm 3 mps 677 mmHg 18%
14:00 +33°C° 0 mm 4 mps 677 mmHg 20%
15:00 +30°C° 0 mm 4 mps 677 mmHg 24%
16:00 +28°C° 0 mm 3 mps 677 mmHg 29%
17:00 +26°C° 0 mm 3 mps 677 mmHg 33%
18:00 +23°C° 0 mm 2 mps 676 mmHg 45%
19:00 +20°C° 0 mm 1 mps 676 mmHg 56%
20:00 +16°C° 0 mm 1 mps 676 mmHg 67%
21:00 +16°C° 0 mm 1 mps 676 mmHg 67%
22:00 +15°C° 0 mm 1 mps 676 mmHg 66%
23:00 +15°C° 0 mm 1 mps 676 mmHg 65%

22 April, Thursday

Time Temperature Precipitation Wind Pressure Humidity
00:00 +15°C° 0 mm 1 mps 676 mmHg 62%
01:00 +15°C° 0 mm 1 mps 675 mmHg 60%
02:00 +14°C° 0 mm 1 mps 675 mmHg 57%
03:00 +14°C° 0 mm 1 mps 675 mmHg 54%
04:00 +14°C° 0 mm 1 mps 675 mmHg 51%
05:00 +14°C° 0 mm 1 mps 675 mmHg 49%
06:00 +18°C° 0 mm 1 mps 676 mmHg 40%
07:00 +22°C° 0 mm 1 mps 677 mmHg 32%
08:00 +25°C° 0 mm 1 mps 678 mmHg 23%
09:00 +28°C° 0 mm 1 mps 678 mmHg 19%
10:00 +31°C° 0 mm 2 mps 678 mmHg 15%
11:00 +34°C° 0 mm 2 mps 678 mmHg 10%
12:00 +34°C° 0 mm 3 mps 678 mmHg 13%
13:00 +33°C° 0 mm 3 mps 677 mmHg 16%
14:00 +33°C° 0 mm 4 mps 677 mmHg 19%
15:00 +30°C° 0 mm 4 mps 676 mmHg 23%
16:00 +28°C° 0 mm 3 mps 676 mmHg 27%
17:00 +26°C° 0 mm 2 mps 676 mmHg 31%
18:00 +23°C° 0 mm 2 mps 676 mmHg 41%
19:00 +20°C° 0 mm 1 mps 676 mmHg 50%
20:00 +18°C° 0 mm 1 mps 676 mmHg 59%
21:00 +16°C° 0 mm 1 mps 676 mmHg 58%
22:00 +16°C° 0 mm 1 mps 676 mmHg 58%
23:00 +16°C° 0 mm 1 mps 676 mmHg 57%

23 April, Friday

Time Temperature Precipitation Wind Pressure Humidity
00:00 +16°C° 0 mm 1 mps 676 mmHg 55%
01:00 +16°C° 0 mm 1 mps 675 mmHg 52%
02:00 +15°C° 0 mm 1 mps 675 mmHg 50%
03:00 +15°C° 0 mm 1 mps 675 mmHg 47%
04:00 +15°C° 0 mm 1 mps 675 mmHg 45%
05:00 +15°C° 0 mm 1 mps 675 mmHg 43%
06:00 +20°C° 0 mm 1 mps 676 mmHg 35%
07:00 +23°C° 0 mm 1 mps 677 mmHg 28%
08:00 +26°C° 0 mm 1 mps 677 mmHg 20%
09:00 +29°C° 0 mm 1 mps 678 mmHg 17%
10:00 +31°C° 0 mm 2 mps 678 mmHg 14%
11:00 +34°C° 0 mm 2 mps 678 mmHg 11%
12:00 +34°C° 0 mm 3 mps 677 mmHg 13%
13:00 +34°C° 0 mm 3 mps 677 mmHg 14%
14:00 +34°C° 0 mm 4 mps 677 mmHg 16%
15:00 +31°C° 0 mm 3 mps 676 mmHg 20%
16:00 +29°C° 0 mm 3 mps 676 mmHg 24%
17:00 +27°C° 0 mm 3 mps 676 mmHg 28%
18:00 +24°C° 0 mm 2 mps 676 mmHg 38%
19:00 +21°C° 0 mm 1 mps 676 mmHg 47%
20:00 +18°C° 0 mm 1 mps 676 mmHg 57%
21:00 +18°C° 0 mm 1 mps 676 mmHg 56%
22:00 +16°C° 0 mm 1 mps 676 mmHg 55%
23:00 +16°C° 0 mm 1 mps 676 mmHg 54%
Show more